This demonstration page uses our WeatherBlox Daily Observations layout. Learn more.

Left ArrowRight Arrow

38.83388, -104.82136

Hourly Observations for August 8, 2022

Temp ( °F °C ) Dew Point ( °F °C ) Humidity (%) Winds ( mph kmh ) Pressure ( in mb ) Visibility ( mi km ) Precip ( " mm )
12:13 am 00:13 Cloudy with Nearby Thunderstorms 64 17.8 60 15.6 87 87 SSE 7 11 30.08 1019 8 13 0.03 0.76
12:36 am 00:36 Cloudy with Light Rain 63 17.2 61 16.1 93 93 SSE 6 9 30.09 1019 8 13 0.07 1.78
12:54 am 00:54 Cloudy with Light Rain 63 17.2 60 15.6 90 90 Calm 30.18 1022 8 13 0.08 2.03
1:54 am 01:54 Cloudy with Light Rain 63 17.2 60 15.6 90 90 N 6 9 30.14 1021 9 14 0.04 1.02
2:54 am 02:54 Mostly Cloudy 62 16.7 59 15 90 90 NNW 7 11 30.09 1019 10 16 0.01 0.25
3:54 am 03:54 Mostly Cloudy 62 16.7 58 14.4 86 86 WSW 5 7 30.08 1019 10 16 0.00 0.00
4:54 am 04:54 Mostly Cloudy 63 17.2 59 15 87 87 NNE 5 7 30.08 1019 10 16 0.00 0.00
5:54 am 05:54 Mostly Cloudy 62 16.7 58 14.4 86 86 E 7 11 30.10 1019 10 16 0.00 0.00
6:54 am 06:54 Mostly Cloudy 62 16.7 56 13.3 80 80 Calm 30.12 1020 10 16 0.00 0.00
7:54 am 07:54 Sunny 63 17.2 57 13.9 81 81 Calm 30.14 1021 10 16 0.00 0.00
8:54 am 08:54 Partly Cloudy 66 18.9 57 13.9 73 73 SSE 7 11 30.14 1021 10 16 0.00 0.00
9:54 am 09:54 Partly Cloudy 68 20 58 14.4 70 70 SE 8 13 30.14 1021 10 16 0.00 0.00
10:54 am 10:54 Partly Cloudy 72 22.2 59 15 64 64 S 10 17 30.14 1021 10 16 0.00 0.00
11:54 am 11:54 Partly Cloudy 74 23.3 58 14.4 57 57 S 13 20 30.11 1020 10 16 0.00 0.00
12:54 pm 12:54 Partly Cloudy 77 25 57 13.9 50 50 SE 14 22 30.08 1019 10 16 0.00 0.00
1:54 pm 13:54 Partly Cloudy 78 25.6 60 15.6 54 54 SSE 13 20 30.06 1018 10 16 0.00 0.00
2:54 pm 14:54 Partly Cloudy 78 25.6 59 15 52 52 S 7 11 30.05 1018 10 16 0.00 0.00
3:54 pm 15:54 Mostly Cloudy 79 26.1 58 14.4 49 49 S 12 19 30.02 1017 10 16 0.00 0.00
4:54 pm 16:54 Mostly Cloudy 76 24.4 57 13.9 52 52 S 9 15 30.03 1017 10 16 0.00 0.00
5:54 pm 17:54 Mostly Cloudy 76 24.4 59 15 56 56 SSE 15 24 30.03 1017 10 16 0.00 0.00
6:54 pm 18:54 Mostly Cloudy 74 23.3 60 15.6 62 62 SE 9 15 30.04 1017 10 16 0.00 0.00
7:54 pm 19:54 Partly Cloudy 73 22.8 61 16.1 66 66 SE 9 15 30.05 1018 10 16 0.00 0.00
8:54 pm 20:54 Partly Cloudy 70 21.1 61 16.1 73 73 SE 8 13 30.08 1019 10 16 0.00 0.00
9:54 pm 21:54 Mostly Cloudy 69 20.6 59 15 70 70 SSE 5 7 30.11 1020 10 16 0.00 0.00
10:54 pm 22:54 Partly Cloudy 69 20.6 59 15 70 70 Calm 30.08 1019 10 16 0.00 0.00
11:54 pm 23:54 Partly Cloudy 66 18.9 58 14.4 75 75 E 3 6 30.07 1018 10 16 0.00 0.00

Powered by AerisWeather